DW5272 Weather Reports


Display with metric or nautical units.
time (UTC)temp
F
wind
direction
speed
MPH
gust
MPH
rain 1hr
in
rain 24hr
in
rain mn
in
humidity
%
barometer
mb
20180218103026 27 272 0.0 5.0 0.00 0.00 0.00 86 1023.6
20180218100056 27 271 1.0 4.0 0.00 0.00 0.00 88 1023.9
20180218093056 27 259 1.0 7.0 0.00 0.00 0.00 88 1023.4
20180218090056 27 264 3.0 4.0 0.00 0.00 0.00 89 1022.8
20180218083056 27 242 2.0 4.0 0.00 0.00 0.00 89 1022.7
20180218080056 26 267 2.0 4.0 0.00 0.00 0.00 87 1022.1
20180218073056 27 304 3.0 4.0 0.00 0.00 0.00 86 1021.2
20180218070056 28 211 4.0 5.0 0.00 0.00 0.00 86 1021.0
20180218063027 28 275 1.0 6.0 0.00 0.00 0.00 85 1020.4
20180218060056 29 288 2.0 10.0 0.00 0.00 0.00 84 1020.3
20180218053026 29 287 3.0 10.0 0.00 0.00 0.00 84 1019.9
20180218050056 30 288 3.0 11.0 0.00 0.00 0.00 85 1019.5
20180218043055 30 287 2.0 9.0 0.00 0.00 0.00 86 1019.1
20180218040054 30 273 2.0 5.0 0.00 0.00 0.00 86 1018.7
20180218033054 30 290 3.0 8.0 0.00 0.00 0.00 86 1017.9
20180218030054 31 259 2.0 8.0 0.00 0.00 0.00 87 1017.8
20180218023055 31 230 2.0 9.0 0.00 0.00 0.00 90 1017.4
20180218020054 30 227 2.0 8.0 0.00 0.00 0.00 93 1017.1
20180218013054 30 223 4.0 7.0 0.00 0.00 0.00 93 1016.8
20180218010054 30 246 3.0 9.0 0.00 0.00 0.00 94 1016.5
20180218003053 30 216 3.0 7.0 0.00 0.00 0.00 93 1016.4
20180218000053 30 219 4.0 11.0 0.00 0.00 0.00 93 1016.2
20180217233053 30 200 4.0 17.0 0.00 0.00 0.00 92 1015.9
20180217230053 30 218 3.0 15.0 0.00 0.00 0.00 90 1015.7
20180217223053 31 217 3.0 8.0 0.00 0.00 0.00 80 1015.2
20180217220053 31 189 2.0 7.0 0.00 0.00 0.00 78 1014.6
20180217213053 32 208 1.0 10.0 0.00 0.00 0.00 77 1014.8
20180217210052 32 242 8.0 14.0 0.00 0.00 0.00 75 1015.7
20180217203052 32 225 3.0 13.0 0.00 0.00 0.00 74 1015.7
20180217200053 32 184 3.0 16.0 0.00 0.00 0.00 72 1015.5
20180217193052 32 211 8.0 12.0 0.00 0.00 0.00 69 1016.0
20180217190051 32 213 4.0 14.0 0.00 0.00 0.00 68 1016.2
20180217183052 33 225 5.0 16.0 0.00 0.00 0.00 67 1017.2
20180217180051 33 186 7.0 16.0 0.00 0.00 0.00 66 1018.1
20180217173051 32 178 4.0 10.0 0.00 0.00 0.00 66 1018.7
20180217170052 32 209 6.0 14.0 0.00 0.00 0.00 70 1019.1
20180217163051 31 213 3.0 13.0 0.00 0.00 0.00 68 1019.4
20180217160051 30 218 3.0 14.0 0.00 0.00 0.00 67 1019.3
20180217153051 30 203 2.0 13.0 0.00 0.00 0.00 67 1019.6
20180217150050 29 200 2.0 10.0 0.00 0.00 0.00 67 1020.1
20180217143050 28 195 5.0 11.0 0.00 0.00 0.00 67 1020.6
20180217140050 26 159 5.0 9.0 0.00 0.00 0.00 70 1020.3
20180217133049 24 223 4.0 13.0 0.00 0.00 0.00 73 1021.0
20180217130049 23 210 4.0 10.0 0.00 0.00 0.00 76 1021.1
20180217123050 22 205 1.0 7.0 0.00 0.00 0.00 76 1021.5
20180217120049 22 219 1.0 5.0 0.00 0.00 0.00 76 1021.3
20180217113049 22 200 2.0 5.0 0.00 0.00 0.00 76 1021.4
20180217110048 23 211 3.0 5.0 0.00 0.00 0.00 76 1021.2